linux/drivers/watchdog/
<<
>>
Prefs
Kconfig 63931 2023-08-08 17:49:19
Makefile 8090 2023-08-08 17:49:19
acquirewdt.c 8692 2023-08-08 17:49:19
advantechwdt.c 7991 2023-08-08 17:49:19
alim1535_wdt.c 10143 2023-08-08 17:49:19
alim7101_wdt.c 11174 2023-08-08 17:49:19
ar7_wdt.c 7202 2023-08-08 17:49:19
asm9260_wdt.c 9069 2023-08-08 17:49:19
aspeed_wdt.c 9904 2023-08-08 17:49:19
at91rm9200_wdt.c 7849 2023-08-08 17:49:19
at91sam9_wdt.c 10747 2023-08-08 17:49:19
at91sam9_wdt.h 1318 2023-08-08 17:49:19
ath79_wdt.c 7593 2023-08-08 17:49:19
atlas7_wdt.c 5981 2023-08-08 17:49:19
bcm2835_wdt.c 6952 2023-08-08 17:49:19
bcm47xx_wdt.c 5890 2021-08-29 15:04:50 -0700
bcm63xx_wdt.c 6921 2023-08-08 17:49:19
bcm7038_wdt.c 5439 2023-08-08 17:49:19
bcm_kona_wdt.c 9220 2023-08-08 17:49:19
booke_wdt.c 5993 2023-08-08 17:49:19
cadence_wdt.c 12863 2023-08-08 17:49:19
coh901327_wdt.c 12246 2023-08-08 17:49:19
cpu5wdt.c 6807 2023-08-08 17:49:19
cpwd.c 16142 2023-08-08 17:49:19
da9052_wdt.c 4833 2023-08-08 17:49:19
da9055_wdt.c 4142 2023-08-08 17:49:19
da9062_wdt.c 5699 2023-08-08 17:49:19
da9063_wdt.c 6215 2023-08-08 17:49:19
davinci_wdt.c 8002 2023-08-08 17:49:19
diag288_wdt.c 7909 2023-08-08 17:49:19
digicolor_wdt.c 4050 2023-08-08 17:49:19
dw_wdt.c 8969 2023-08-08 17:49:19
ebc-c384_wdt.c 4118 2023-08-08 17:49:19
ep93xx_wdt.c 3773 2023-08-08 17:49:19
eurotechwdt.c 10955 2023-08-08 17:49:19
f71808e_wdt.c 22635 2023-08-08 17:49:19
ftwdt010_wdt.c 5661 2023-08-08 17:49:19
gef_wdt.c 7672 2023-08-08 17:49:19
geodewdt.c 6603 2023-08-08 17:49:19
gpio_wdt.c 4681 2023-08-08 17:49:19
hpwdt.c 8922 2023-08-08 17:49:19
i6300esb.c 10647 2023-08-08 17:49:19
iTCO_vendor.h 719 2023-08-08 17:49:19
iTCO_vendor_support.c 11089 2023-08-08 17:49:19
iTCO_wdt.c 18045 2023-08-08 17:49:19
ib700wdt.c 8527 2023-08-08 17:49:19
ibmasr.c 9628 2023-08-08 17:49:19
ie6xx_wdt.c 8769 2023-08-08 17:49:19
imgpdc_wdt.c 9643 2023-08-08 17:49:19
imx2_wdt.c 12161 2023-08-08 17:49:19
indydog.c 4703 2023-08-08 17:49:19
intel-mid_wdt.c 4670 2023-08-08 17:49:19
intel_scu_watchdog.c 15396 2023-08-08 17:49:19
intel_scu_watchdog.h 2053 2023-08-08 17:49:19
iop_wdt.c 6030 2023-08-08 17:49:19
it8712f_wdt.c 10199 2023-08-08 17:49:19
it87_wdt.c 7893 2023-08-08 17:49:19
ixp4xx_wdt.c 4680 2023-08-08 17:49:19
jz4740_wdt.c 6249 2023-08-08 17:49:19
kempld_wdt.c 14832 2023-08-08 17:49:19
ks8695_wdt.c 7838 2023-08-08 17:49:19
lantiq_wdt.c 7513 2023-08-08 17:49:19
loongson1_wdt.c 4114 2023-08-08 17:49:19
lpc18xx_wdt.c 9336 2023-08-08 17:49:19
m54xx_wdt.c 5130 2023-08-08 17:49:19
machzwd.c 10062 2023-08-08 17:49:19
max63xx_wdt.c 7189 2023-08-08 17:49:19
max77620_wdt.c 5566 2023-08-08 17:49:19
mei_wdt.c 15254 2023-08-08 17:49:19
mena21_wdt.c 5269 2023-08-08 17:49:19
menf21bmc_wdt.c 5492 2023-08-08 17:49:19
menz69_wdt.c 4014 2023-08-08 17:49:19
meson_gxbb_wdt.c 5697 2023-08-08 17:49:19
meson_wdt.c 6305 2023-08-08 17:49:19
mixcomwd.c 7442 2023-08-08 17:49:19
moxart_wdt.c 4601 2023-08-08 17:49:19
mpc8xxx_wdt.c 7017 2023-08-08 17:49:19
mt7621_wdt.c 4847 2023-08-08 17:49:19
mtk_wdt.c 6377 2023-08-08 17:49:19
mtx-1_wdt.c 5950 2023-08-08 17:49:19
mv64x60_wdt.c 7825 2023-08-08 17:49:19
ni903x_wdt.c 6899 2023-08-08 17:49:19
nic7018_wdt.c 6339 2023-08-08 17:49:19
npcm_wdt.c 5868 2023-08-08 17:49:19
nuc900_wdt.c 7317 2023-08-08 17:49:19
nv_tco.c 12493 2023-08-08 17:49:19
nv_tco.h 2062 2023-08-08 17:49:19
octeon-wdt-main.c 16868 2023-08-08 17:49:19
octeon-wdt-nmi.S 2042 2021-08-29 15:04:50 -0700
of_xilinx_wdt.c 7887 2023-08-08 17:49:19
omap_wdt.c 9907 2023-08-08 17:49:19
omap_wdt.h 2300 2023-08-08 17:49:19
orion_wdt.c 17051 2023-08-08 17:49:19
pc87413_wdt.c 14375 2023-08-08 17:49:19
pcwd.c 26534 2023-08-08 17:49:19
pcwd_pci.c 20386 2023-08-08 17:49:19
pcwd_usb.c 21684 2023-08-08 17:49:19
pic32-dmt.c 5743 2023-08-08 17:49:19
pic32-wdt.c 6240 2023-08-08 17:49:19
pika_wdt.c 6901 2023-08-08 17:49:19
pnx4008_wdt.c 7247 2023-08-08 17:49:19
pnx833x_wdt.c 7250 2023-08-08 17:49:19
pretimeout_noop.c 1270 2023-08-08 17:49:19
pretimeout_panic.c 1252 2023-08-08 17:49:19
qcom-wdt.c 6550 2023-08-08 17:49:19
rave-sp-wdt.c 8344 2023-08-08 17:49:19
rc32434_wdt.c 8324 2023-08-08 17:49:19
rdc321x_wdt.c 7332 2023-08-08 17:49:19
renesas_wdt.c 7997 2023-08-08 17:49:19
retu_wdt.c 4630 2023-08-08 17:49:19
riowd.c 5716 2023-08-08 17:49:19
rn5t618_wdt.c 5337 2023-08-08 17:49:19
rt2880_wdt.c 5096 2023-08-08 17:49:19
rtd119x_wdt.c 4006 2023-08-08 17:49:19
rza_wdt.c 4909 2023-08-08 17:49:19
s3c2410_wdt.c 19667 2023-08-08 17:49:19
sa1100_wdt.c 5234 2023-08-08 17:49:19
sama5d4_wdt.c 7836 2023-08-08 17:49:19
sb_wdog.c 8737 2023-08-08 17:49:19
sbc60xxwdt.c 10364 2023-08-08 17:49:19
sbc7240_wdt.c 7049 2023-08-08 17:49:19
sbc8360.c 10039 2023-08-08 17:49:19
sbc_epx_c3.c 5119 2023-08-08 17:49:19
sbc_fitpc2_wdt.c 5377 2023-08-08 17:49:19
sbsa_gwdt.c 11384 2023-08-08 17:49:19
sc1200wdt.c 11405 2023-08-08 17:49:19
sc520_wdt.c 11092 2023-08-08 17:49:19
sch311x_wdt.c 13809 2023-08-08 17:49:19
scx200_wdt.c 6599 2023-08-08 17:49:19
shwdt.c 9311 2023-08-08 17:49:19
sirfsoc_wdt.c 5795 2023-08-08 17:49:19
smsc37b787_wdt.c 15474 2023-08-08 17:49:19
softdog.c 4654 2023-08-08 17:49:19
sp5100_tco.c 12816 2023-08-08 17:49:19
sp5100_tco.h 2307 2021-08-29 15:04:50 -0700
sp805_wdt.c 9027 2023-08-08 17:49:19
sprd_wdt.c 9782 2023-08-08 17:49:19
st_lpc_wdt.c 7256 2023-08-08 17:49:19
stm32_iwdg.c 7270 2023-08-08 17:49:19
stmp3xxx_rtc_wdt.c 3967 2023-08-08 17:49:19
sun4v_wdt.c 4600 2023-08-08 17:49:19
sunxi_wdt.c 7925 2023-08-08 17:49:19
tangox_wdt.c 5036 2023-08-08 17:49:19
tegra_wdt.c 7457 2023-08-08 17:49:19
ts4800_wdt.c 5352 2023-08-08 17:49:19
ts72xx_wdt.c 4415 2023-08-08 17:49:19
twl4030_wdt.c 3873 2023-08-08 17:49:19
txx9wdt.c 4683 2023-08-08 17:49:19
uniphier_wdt.c 6471 2023-08-08 17:49:19
ux500_wdt.c 4104 2023-08-08 17:49:19
via_wdt.c 7646 2023-08-08 17:49:19
w83627hf_wdt.c 11004 2023-08-08 17:49:19
w83877f_wdt.c 10183 2023-08-08 17:49:19
w83977f_wdt.c 12101 2023-08-08 17:49:19
wafer5823wdt.c 7264 2023-08-08 17:49:19
watchdog_core.c 11465 2023-08-08 17:49:19
watchdog_core.h 1330 2023-08-08 17:49:19
watchdog_dev.c 29247 2023-08-08 17:49:19
watchdog_pretimeout.c 4804 2023-08-08 17:49:19
watchdog_pretimeout.h 1684 2021-08-29 15:04:50 -0700
wd501p.h 1598 2023-08-08 17:49:19
wdat_wdt.c 12909 2023-08-08 17:49:19
wdrtas.c 15626 2023-08-08 17:49:19
wdt.c 15849 2023-08-08 17:49:19
wdt285.c 4856 2023-08-08 17:49:19
wdt977.c 12079 2023-08-08 17:49:19
wdt_pci.c 17676 2023-08-08 17:49:19
wm831x_wdt.c 7113 2023-08-08 17:49:19
wm8350_wdt.c 4098 2021-08-29 15:04:50 -0700
xen_wdt.c 4929 2023-08-08 17:49:19
ziirave_wdt.c 19780 2023-08-08 17:49:19
zx2967_wdt.c 7184 2023-08-08 17:49:19